| time (UTC) | temp F | wind direction | speed MPH | gust MPH | rain 1hr in | rain 24hr in | rain mn in | humidity % | barometer mb |
| 20260905055452 | 75 | 124 | 2.0 | 3.0 | 0.00 | 0.02 | 0.00 | 83 | 1014.1 |
| 20260905054952 | 75 | 98 | 2.0 | 3.0 | 0.00 | 0.02 | 0.00 | 83 | 1014.2 |
| 20260905054451 | 75 | 115 | 1.0 | 4.0 | 0.00 | 0.02 | 0.00 | 83 | 1014.3 |
| 20260905053951 | 75 | 118 | 2.0 | 4.0 | 0.00 | 0.02 | 0.00 | 83 | 1014.4 |
| 20260905053450 | 75 | 115 | 3.0 | 3.0 | 0.00 | 0.02 | 0.00 | 82 | 1014.4 |
| 20260905052950 | 75 | 94 | 0.0 | 1.0 | 0.00 | 0.02 | 0.00 | 83 | 1014.4 |
| 20260905052449 | 75 | 89 | 0.0 | 3.0 | 0.00 | 0.02 | 0.00 | 83 | 1014.5 |
| 20260905051949 | 75 | 86 | 1.0 | 2.0 | 0.00 | 0.02 | 0.00 | 83 | 1014.5 |
| 20260905051448 | 75 | 6 | 0.0 | 0.0 | 0.00 | 0.02 | 0.00 | 83 | 1014.5 |
| 20260905050948 | 75 | 6 | 0.0 | 1.0 | 0.00 | 0.02 | 0.00 | 82 | 1014.6 |
| 20260905050447 | 75 | 6 | 0.0 | 1.0 | 0.00 | 0.02 | 0.00 | 82 | 1014.7 |
| 20260905045946 | 75 | 10 | 0.0 | 0.0 | 0.00 | 0.02 | 0.00 | 82 | 1014.6 |
| 20260905045445 | 75 | 10 | 0.0 | 0.0 | 0.00 | 0.02 | 0.00 | 81 | 1014.6 |
| 20260905044944 | 75 | 10 | 0.0 | 0.0 | 0.00 | 0.00 | 0.02 | 81 | 1014.7 |
| 20260905044444 | 75 | 10 | 0.0 | 0.0 | 0.00 | 0.00 | 0.02 | 81 | 1014.7 |
| 20260905043943 | 75 | 10 | 0.0 | 1.0 | 0.00 | 0.00 | 0.02 | 81 | 1014.8 |
| 20260905043443 | 75 | 10 | 1.0 | 0.0 | 0.00 | 0.00 | 0.02 | 81 | 1014.8 |
| 20260905042942 | 76 | 10 | 0.0 | 1.0 | 0.00 | 0.00 | 0.02 | 81 | 1014.8 |
| 20260905042442 | 76 | 10 | 1.0 | 2.0 | 0.00 | 0.00 | 0.02 | 81 | 1014.8 |
| 20260905041941 | 76 | 35 | 2.0 | 3.0 | 0.00 | 0.00 | 0.02 | 81 | 1014.9 |
| 20260905041441 | 76 | 72 | 0.0 | 0.0 | 0.00 | 0.00 | 0.02 | 81 | 1014.8 |
| 20260905040940 | 76 | 72 | 0.0 | 0.0 | 0.00 | 0.00 | 0.02 | 81 | 1014.8 |
| 20260905040440 | 76 | 72 | 0.0 | 0.0 | 0.00 | 0.00 | 0.02 | 81 | 1015.0 |
| 20260905035939 | 75 | 72 | 0.0 | 0.0 | 0.00 | 0.00 | 0.02 | 81 | 1015.0 |
| 20260905035439 | 75 | 72 | 0.0 | 0.0 | 0.00 | 0.00 | 0.02 | 81 | 1015.0 |
| 20260905034938 | 76 | 72 | 0.0 | 0.0 | 0.00 | 0.00 | 0.02 | 81 | 1015.0 |
| 20260905034438 | 76 | 72 | 0.0 | 0.0 | 0.00 | 0.00 | 0.02 | 81 | 1015.0 |
| 20260905034159 | 76 | 72 | 0.0 | 0.0 | 0.00 | 0.00 | 0.02 | 81 | 1014.9 |
| 20260905033937 | 76 | 72 | 0.0 | 0.0 | 0.00 | 0.00 | 0.02 | 81 | 1014.9 |
| 20260905033437 | 76 | 72 | 0.0 | 0.0 | 0.00 | 0.00 | 0.02 | 80 | 1014.9 |
| 20260905032936 | 76 | 72 | 0.0 | 0.0 | 0.00 | 0.00 | 0.02 | 80 | 1014.8 |
| 20260905032435 | 76 | 72 | 0.0 | 0.0 | 0.00 | 0.00 | 0.02 | 80 | 1014.8 |
| 20260905031434 | 76 | 72 | 0.0 | 0.0 | 0.00 | 0.00 | 0.02 | 80 | 1014.9 |
| 20260905030934 | 76 | 72 | 0.0 | 0.0 | 0.00 | 0.00 | 0.02 | 80 | 1014.9 |
| 20260905030703 | 76 | 55 | 0.0 | 0.0 | 0.00 | 0.00 | 0.02 | 79 | 1014.8 |
| 20260905030433 | 76 | 72 | 0.0 | 1.0 | 0.00 | 0.00 | 0.02 | 79 | 1014.9 |
| 20260905025933 | 76 | 59 | 0.0 | 2.0 | 0.00 | 0.00 | 0.02 | 79 | 1014.8 |
| 20260905025432 | 76 | 38 | 0.0 | 2.0 | 0.00 | 0.00 | 0.02 | 79 | 1014.9 |
| 20260905024932 | 76 | 55 | 0.0 | 0.0 | 0.00 | 0.00 | 0.02 | 79 | 1014.8 |
| 20260905024431 | 76 | 55 | 0.0 | 0.0 | 0.00 | 0.00 | 0.02 | 79 | 1014.8 |
| 20260905023931 | 76 | 55 | 0.0 | 0.0 | 0.00 | 0.00 | 0.02 | 79 | 1014.8 |
| 20260905023430 | 76 | 45 | 0.0 | 0.0 | 0.00 | 0.00 | 0.02 | 79 | 1014.8 |
| 20260905022630 | 76 | 23 | 1.0 | 1.0 | 0.00 | 0.00 | 0.02 | 80 | 1014.8 |
| 20260905022202 | 76 | 23 | 1.0 | 1.0 | 0.00 | 0.00 | 0.02 | 80 | 1014.8 |
| 20260905022012 | 76 | 23 | 1.0 | 1.0 | 0.00 | 0.00 | 0.02 | 80 | 1014.8 |
| 20260905021927 | 76 | 23 | 1.0 | 1.0 | 0.00 | 0.00 | 0.02 | 80 | 1014.8 |
| 20260905021426 | 76 | 31 | 0.0 | 0.0 | 0.00 | 0.00 | 0.02 | 80 | 1014.8 |
| 20260905020926 | 76 | 31 | 0.0 | 1.0 | 0.00 | 0.00 | 0.02 | 80 | 1014.7 |
| 20260905020424 | 76 | 31 | 0.0 | 3.0 | 0.00 | 0.00 | 0.02 | 80 | 1014.7 |
| 20260905015924 | 76 | 25 | 1.0 | 3.0 | 0.00 | 0.00 | 0.02 | 81 | 1014.7 |
| 20260905015423 | 76 | 32 | 2.0 | 3.0 | 0.00 | 0.00 | 0.02 | 80 | 1014.7 |
| 20260905014923 | 76 | 31 | 2.0 | 2.0 | 0.00 | 0.00 | 0.02 | 79 | 1014.6 |
| 20260905014422 | 77 | 190 | 0.0 | 0.0 | 0.00 | 0.00 | 0.02 | 78 | 1014.5 |
| 20260905013922 | 77 | 190 | 0.0 | 0.0 | 0.00 | 0.00 | 0.02 | 76 | 1014.4 |
| 20260905013421 | 77 | 190 | 0.0 | 0.0 | 0.00 | 0.00 | 0.02 | 76 | 1014.3 |
| 20260905012920 | 77 | 190 | 0.0 | 1.0 | 0.00 | 0.00 | 0.02 | 76 | 1014.4 |
| 20260905012420 | 77 | 190 | 0.0 | 2.0 | 0.00 | 0.00 | 0.02 | 76 | 1014.2 |
| 20260905011919 | 77 | 239 | 0.0 | 3.0 | 0.00 | 0.00 | 0.02 | 76 | 1014.3 |
| 20260905011419 | 77 | 186 | 0.0 | 0.0 | 0.00 | 0.00 | 0.02 | 75 | 1014.1 |
| 20260905010918 | 77 | 186 | 0.0 | 0.0 | 0.00 | 0.00 | 0.02 | 75 | 1014.2 |
| 20260905010418 | 77 | 186 | 0.0 | 2.0 | 0.00 | 0.00 | 0.02 | 74 | 1014.0 |
| 20260905005917 | 77 | 186 | 0.0 | 3.0 | 0.00 | 0.00 | 0.02 | 74 | 1014.0 |
| 20260905005417 | 77 | 212 | 3.0 | 2.0 | 0.00 | 0.00 | 0.02 | 74 | 1014.1 |
| 20260905004916 | 77 | 288 | 0.0 | 2.0 | 0.00 | 0.00 | 0.02 | 74 | 1014.0 |
| 20260905004416 | 77 | 259 | 2.0 | 4.0 | 0.00 | 0.00 | 0.02 | 74 | 1013.8 |
| 20260905003915 | 77 | 252 | 0.0 | 3.0 | 0.00 | 0.00 | 0.02 | 73 | 1013.8 |
| 20260905003415 | 78 | 215 | 2.0 | 3.0 | 0.00 | 0.00 | 0.02 | 73 | 1013.7 |
| 20260905002914 | 78 | 208 | 2.0 | 4.0 | 0.00 | 0.00 | 0.02 | 72 | 1013.7 |
| 20260905002414 | 78 | 249 | 3.0 | 4.0 | 0.00 | 0.00 | 0.02 | 71 | 1013.7 |
| 20260905001913 | 78 | 263 | 3.0 | 4.0 | 0.00 | 0.00 | 0.02 | 72 | 1013.7 |
| 20260905001412 | 78 | 304 | 3.0 | 4.0 | 0.00 | 0.00 | 0.02 | 71 | 1013.8 |
| 20260905000912 | 79 | 274 | 2.0 | 4.0 | 0.00 | 0.00 | 0.02 | 70 | 1013.8 |
| 20260905000410 | 79 | 311 | 2.0 | 4.0 | 0.00 | 0.00 | 0.02 | 70 | 1013.8 |
| 20260904235909 | 79 | 298 | 3.0 | 4.0 | 0.00 | 0.00 | 0.02 | 69 | 1013.7 |
| 20260904235408 | 79 | 276 | 2.0 | 4.0 | 0.00 | 0.00 | 0.02 | 69 | 1013.8 |
| 20260904234908 | 80 | 323 | 2.0 | 3.0 | 0.01 | 0.00 | 0.02 | 67 | 1013.8 |
| 20260904234407 | 80 | 333 | 1.0 | 2.0 | 0.01 | 0.00 | 0.02 | 66 | 1013.7 |
| 20260904233905 | 80 | 290 | 1.0 | 4.0 | 0.01 | 0.00 | 0.02 | 66 | 1013.8 |
| 20260904233404 | 80 | 287 | 2.0 | 3.0 | 0.01 | 0.00 | 0.02 | 65 | 1013.8 |
| 20260904232904 | 80 | 318 | 1.0 | 3.0 | 0.01 | 0.00 | 0.02 | 65 | 1013.7 |
| 20260904232401 | 80 | 287 | 2.0 | 3.0 | 0.01 | 0.00 | 0.02 | 65 | 1014.0 |
| 20260904231901 | 80 | 305 | 1.0 | 3.0 | 0.01 | 0.00 | 0.02 | 65 | 1014.0 |
| 20260904225352 | 80 | 309 | 1.0 | 2.0 | 0.01 | 0.00 | 0.02 | 66 | 1014.3 |
| 20260904224852 | 80 | 316 | 0.0 | 4.0 | 0.01 | 0.00 | 0.02 | 67 | 1014.3 |
| 20260904224351 | 80 | 210 | 3.0 | 7.0 | 0.01 | 0.00 | 0.02 | 66 | 1014.5 |
| 20260904223851 | 80 | 336 | 5.0 | 7.0 | 0.01 | 0.00 | 0.02 | 66 | 1014.5 |
| 20260904222850 | 79 | 267 | 1.0 | 3.0 | 0.01 | 0.00 | 0.02 | 68 | 1014.5 |
| 20260904222349 | 79 | 203 | 2.0 | 7.0 | 0.01 | 0.00 | 0.02 | 69 | 1014.4 |
| 20260904221849 | 79 | 238 | 4.0 | 6.0 | 0.01 | 0.00 | 0.02 | 68 | 1014.6 |
| 20260904221348 | 78 | 210 | 4.0 | 6.0 | 0.01 | 0.00 | 0.02 | 68 | 1014.5 |
| 20260904220847 | 78 | 226 | 4.0 | 8.0 | 0.01 | 0.00 | 0.02 | 69 | 1014.5 |
| 20260904220347 | 77 | 187 | 6.0 | 6.0 | 0.01 | 0.00 | 0.02 | 69 | 1014.6 |
| 20260904215846 | 77 | 211 | 3.0 | 8.0 | 0.01 | 0.00 | 0.01 | 73 | 1014.6 |
| 20260904215346 | 76 | 208 | 5.0 | 7.0 | 0.01 | 0.00 | 0.01 | 76 | 1014.8 |
| 20260904214845 | 76 | 195 | 4.0 | 4.0 | 0.00 | 0.00 | 0.01 | 80 | 1014.7 |
| 20260904214343 | 75 | 58 | 3.0 | 3.0 | 0.00 | 0.00 | 0.01 | 81 | 1014.5 |
| 20260904213341 | 75 | 250 | 3.0 | 6.0 | 0.00 | 0.00 | 0.01 | 78 | 1015.2 |
| 20260904212340 | 75 | 228 | 5.0 | 8.0 | 0.00 | 0.00 | 0.00 | 74 | 1015.8 |
| 20260904211839 | 75 | 235 | 2.0 | 8.0 | 0.00 | 0.00 | 0.00 | 70 | 1015.8 |
| 20260904211339 | 76 | 281 | 4.0 | 11.0 | 0.00 | 0.00 | 0.00 | 69 | 1016.2 |
| 20260904210838 | 77 | 274 | 7.0 | 7.0 | 0.00 | 0.00 | 0.00 | 66 | 1015.8 |
| 20260904210338 | 77 | 6 | 1.0 | 5.0 | 0.00 | 0.00 | 0.00 | 64 | 1015.3 |
| 20260904205837 | 77 | 0 | 3.0 | 6.0 | 0.00 | 0.00 | 0.00 | 65 | 1015.2 |
| 20260904205336 | 77 | 356 | 4.0 | 11.0 | 0.00 | 0.00 | 0.00 | 65 | 1015.1 |
| 20260904204836 | 76 | 291 | 8.0 | 13.0 | 0.00 | 0.00 | 0.00 | 66 | 1015.2 |
| 20260904204336 | 76 | 34 | 8.0 | 21.0 | 0.00 | 0.00 | 0.00 | 67 | 1015.4 |
| 20260904203835 | 76 | 42 | 11.0 | 25.0 | 0.00 | 0.00 | 0.00 | 65 | 1015.1 |
| 20260904203333 | 76 | 359 | 11.0 | 21.0 | 0.00 | 0.00 | 0.00 | 65 | 1015.3 |
| 20260904202833 | 77 | 13 | 12.0 | 20.0 | 0.00 | 0.00 | 0.00 | 66 | 1016.2 |
| 20260904202332 | 77 | 342 | 10.0 | 21.0 | 0.00 | 0.00 | 0.00 | 68 | 1016.2 |
| 20260904201832 | 78 | 315 | 12.0 | 30.0 | 0.00 | 0.00 | 0.00 | 64 | 1016.1 |
| 20260904200831 | 81 | 342 | 13.0 | 44.0 | 0.00 | 0.00 | 0.00 | 55 | 1016.3 |
| 20260904200331 | 86 | 338 | 16.0 | 44.0 | 0.00 | 0.00 | 0.00 | 46 | 1015.9 |
| 20260904195830 | 95 | 285 | 8.0 | 14.0 | 0.00 | 0.00 | 0.00 | 41 | 1014.8 |
| 20260904195329 | 95 | 291 | 8.0 | 14.0 | 0.00 | 0.00 | 0.00 | 39 | 1014.4 |
| 20260904194829 | 95 | 242 | 2.0 | 10.0 | 0.00 | 0.00 | 0.00 | 41 | 1014.4 |
| 20260904194328 | 94 | 255 | 8.0 | 12.0 | 0.00 | 0.00 | 0.00 | 41 | 1014.5 |
| 20260904193828 | 94 | 238 | 8.0 | 14.0 | 0.00 | 0.00 | 0.00 | 42 | 1014.7 |
| 20260904193327 | 94 | 277 | 10.0 | 15.0 | 0.00 | 0.00 | 0.00 | 40 | 1014.7 |
| 20260904192827 | 94 | 277 | 7.0 | 17.0 | 0.00 | 0.00 | 0.00 | 41 | 1014.7 |
| 20260904192326 | 94 | 210 | 10.0 | 16.0 | 0.00 | 0.00 | 0.00 | 41 | 1014.5 |
| 20260904191826 | 95 | 214 | 8.0 | 17.0 | 0.00 | 0.00 | 0.00 | 41 | 1014.4 |
| 20260904191325 | 94 | 250 | 5.0 | 10.0 | 0.00 | 0.00 | 0.00 | 42 | 1014.5 |
| 20260904190824 | 94 | 245 | 5.0 | 14.0 | 0.00 | 0.00 | 0.00 | 41 | 1014.6 |
| 20260904190323 | 94 | 283 | 6.0 | 13.0 | 0.00 | 0.00 | 0.00 | 41 | 1014.6 |
| 20260904185823 | 94 | 302 | 6.0 | 14.0 | 0.00 | 0.00 | 0.00 | 40 | 1014.8 |
| 20260904185322 | 94 | 259 | 11.0 | 13.0 | 0.00 | 0.00 | 0.00 | 41 | 1014.8 |
| 20260904184821 | 94 | 260 | 8.0 | 13.0 | 0.00 | 0.00 | 0.00 | 41 | 1015.0 |
| 20260904184321 | 93 | 318 | 7.0 | 13.0 | 0.00 | 0.00 | 0.00 | 43 | 1014.9 |
| 20260904183820 | 94 | 298 | 6.0 | 12.0 | 0.00 | 0.00 | 0.00 | 42 | 1015.0 |
| 20260904183320 | 94 | 238 | 5.0 | 16.0 | 0.00 | 0.00 | 0.00 | 42 | 1015.0 |
| 20260904182818 | 94 | 253 | 4.0 | 16.0 | 0.00 | 0.00 | 0.00 | 42 | 1015.2 |
| 20260904182318 | 94 | 243 | 11.0 | 15.0 | 0.00 | 0.00 | 0.00 | 42 | 1015.2 |
| 20260904181816 | 94 | 280 | 9.0 | 14.0 | 0.00 | 0.00 | 0.00 | 43 | 1015.2 |
| 20260904180813 | 93 | 325 | 8.0 | 15.0 | 0.00 | 0.00 | 0.00 | 44 | 1015.4 |
| 20260904180313 | 93 | 274 | 7.0 | 11.0 | 0.00 | 0.00 | 0.00 | 43 | 1015.6 |
| 20260904175812 | 93 | 264 | 6.0 | 14.0 | 0.00 | 0.00 | 0.00 | 43 | 1015.7 |
| 20260904175312 | 93 | 305 | 6.0 | 15.0 | 0.00 | 0.00 | 0.00 | 43 | 1015.7 |
| 20260904174811 | 93 | 295 | 5.0 | 14.0 | 0.00 | 0.00 | 0.00 | 44 | 1015.9 |
| 20260904173810 | 93 | 316 | 8.0 | 14.0 | 0.00 | 0.00 | 0.00 | 44 | 1016.1 |
| 20260904173310 | 93 | 253 | 10.0 | 17.0 | 0.00 | 0.00 | 0.00 | 44 | 1016.2 |
| 20260904172308 | 93 | 281 | 10.0 | 18.0 | 0.00 | 0.00 | 0.00 | 43 | 1016.2 |
| 20260904171808 | 93 | 239 | 10.0 | 15.0 | 0.00 | 0.00 | 0.00 | 43 | 1016.2 |
| 20260904171308 | 93 | 281 | 9.0 | 17.0 | 0.00 | 0.00 | 0.00 | 44 | 1016.3 |
| 20260904170807 | 92 | 323 | 8.0 | 17.0 | 0.00 | 0.00 | 0.00 | 44 | 1016.2 |
| 20260904170306 | 93 | 262 | 10.0 | 16.0 | 0.00 | 0.00 | 0.00 | 44 | 1016.3 |
| 20260904165806 | 92 | 298 | 8.0 | 14.0 | 0.00 | 0.00 | 0.00 | 45 | 1016.2 |
| 20260904165305 | 92 | 267 | 11.0 | 15.0 | 0.00 | 0.00 | 0.00 | 45 | 1016.3 |
| 20260904164805 | 92 | 304 | 10.0 | 14.0 | 0.00 | 0.00 | 0.00 | 45 | 1016.2 |
| 20260904164304 | 92 | 245 | 8.0 | 14.0 | 0.00 | 0.00 | 0.00 | 45 | 1016.3 |
| 20260904163804 | 92 | 252 | 8.0 | 17.0 | 0.00 | 0.00 | 0.00 | 45 | 1016.3 |
| 20260904163303 | 92 | 293 | 8.0 | 13.0 | 0.00 | 0.00 | 0.00 | 45 | 1016.3 |
| 20260904162803 | 92 | 283 | 7.0 | 16.0 | 0.00 | 0.00 | 0.00 | 45 | 1016.4 |
| 20260904162305 | 92 | 288 | 6.0 | 12.0 | 0.00 | 0.00 | 0.00 | 45 | 1016.4 |
| 20260904161802 | 92 | 4 | 9.0 | 14.0 | 0.00 | 0.00 | 0.00 | 46 | 1016.5 |
| 20260904161301 | 91 | 274 | 9.0 | 16.0 | 0.00 | 0.00 | 0.00 | 47 | 1016.4 |
| 20260904160801 | 91 | 260 | 9.0 | 18.0 | 0.00 | 0.00 | 0.00 | 47 | 1016.5 |
| 20260904160300 | 91 | 255 | 7.0 | 12.0 | 0.00 | 0.00 | 0.00 | 47 | 1016.6 |
| 20260904155800 | 91 | 304 | 7.0 | 12.0 | 0.00 | 0.00 | 0.00 | 48 | 1016.5 |
| 20260904155300 | 91 | 270 | 9.0 | 12.0 | 0.00 | 0.00 | 0.00 | 49 | 1016.5 |
| 20260904154257 | 90 | 281 | 9.0 | 15.0 | 0.00 | 0.00 | 0.00 | 50 | 1016.6 |
| 20260904153756 | 90 | 242 | 9.0 | 14.0 | 0.00 | 0.00 | 0.00 | 50 | 1016.7 |
| 20260904153256 | 90 | 239 | 8.0 | 13.0 | 0.00 | 0.00 | 0.00 | 50 | 1016.6 |
| 20260904152755 | 90 | 253 | 5.0 | 9.0 | 0.00 | 0.00 | 0.00 | 50 | 1016.5 |
| 20260904152255 | 90 | 278 | 4.0 | 10.0 | 0.00 | 0.00 | 0.00 | 53 | 1016.5 |
| 20260904151754 | 89 | 232 | 6.0 | 9.0 | 0.00 | 0.00 | 0.00 | 53 | 1016.5 |
| 20260904151254 | 89 | 263 | 8.0 | 11.0 | 0.00 | 0.00 | 0.00 | 53 | 1016.4 |
| 20260904150753 | 89 | 277 | 4.0 | 10.0 | 0.00 | 0.00 | 0.00 | 55 | 1016.5 |
| 20260904150253 | 88 | 245 | 7.0 | 10.0 | 0.00 | 0.00 | 0.00 | 55 | 1016.4 |
| 20260904145752 | 88 | 252 | 4.0 | 11.0 | 0.00 | 0.00 | 0.00 | 55 | 1016.4 |
| 20260904145249 | 88 | 245 | 4.0 | 10.0 | 0.00 | 0.00 | 0.00 | 55 | 1016.4 |
| 20260904144748 | 88 | 114 | 4.0 | 11.0 | 0.00 | 0.00 | 0.00 | 56 | 1016.5 |
| 20260904144248 | 87 | 260 | 6.0 | 9.0 | 0.00 | 0.00 | 0.00 | 57 | 1016.4 |
| 20260904143747 | 87 | 240 | 6.0 | 9.0 | 0.00 | 0.00 | 0.00 | 57 | 1016.3 |
| 20260904143247 | 86 | 236 | 8.0 | 10.0 | 0.00 | 0.00 | 0.00 | 58 | 1016.3 |
| 20260904142746 | 86 | 245 | 5.0 | 9.0 | 0.00 | 0.00 | 0.00 | 59 | 1016.2 |
| 20260904142246 | 86 | 249 | 7.0 | 10.0 | 0.00 | 0.00 | 0.00 | 60 | 1016.2 |
| 20260904141745 | 85 | 283 | 6.0 | 7.0 | 0.00 | 0.00 | 0.00 | 61 | 1016.2 |
| 20260904141246 | 85 | 210 | 6.0 | 7.0 | 0.00 | 0.00 | 0.00 | 62 | 1016.3 |
| 20260904140744 | 85 | 238 | 3.0 | 6.0 | 0.00 | 0.00 | 0.00 | 62 | 1016.3 |
| 20260904140243 | 84 | 281 | 3.0 | 7.0 | 0.00 | 0.00 | 0.00 | 63 | 1016.3 |
| 20260904135743 | 84 | 309 | 1.0 | 7.0 | 0.00 | 0.00 | 0.00 | 64 | 1016.2 |
| 20260904135242 | 84 | 212 | 5.0 | 8.0 | 0.00 | 0.00 | 0.00 | 63 | 1016.2 |
| 20260904134742 | 83 | 240 | 4.0 | 7.0 | 0.00 | 0.00 | 0.00 | 63 | 1016.2 |
| 20260904134240 | 83 | 229 | 5.0 | 9.0 | 0.00 | 0.00 | 0.00 | 64 | 1016.3 |
| 20260904133739 | 83 | 236 | 2.0 | 7.0 | 0.00 | 0.00 | 0.00 | 65 | 1016.3 |
| 20260904133238 | 83 | 245 | 4.0 | 8.0 | 0.00 | 0.00 | 0.00 | 65 | 1016.4 |
| 20260904132738 | 82 | 198 | 2.0 | 4.0 | 0.00 | 0.00 | 0.00 | 68 | 1016.3 |
| 20260904132237 | 82 | 207 | 2.0 | 5.0 | 0.00 | 0.00 | 0.00 | 70 | 1016.3 |
| 20260904131737 | 82 | 176 | 2.0 | 5.0 | 0.00 | 0.00 | 0.00 | 71 | 1016.4 |
| 20260904131236 | 82 | 174 | 2.0 | 4.0 | 0.00 | 0.00 | 0.00 | 71 | 1016.3 |
| 20260904130235 | 81 | 188 | 3.0 | 5.0 | 0.00 | 0.00 | 0.00 | 72 | 1016.4 |
| 20260904125731 | 81 | 150 | 3.0 | 4.0 | 0.00 | 0.00 | 0.00 | 74 | 1016.4 |
| 20260904125231 | 80 | 201 | 2.0 | 3.0 | 0.00 | 0.00 | 0.00 | 76 | 1016.5 |
| 20260904124229 | 80 | 180 | 0.0 | 1.0 | 0.00 | 0.00 | 0.00 | 78 | 1016.4 |
| 20260904123729 | 79 | 186 | 0.0 | 0.0 | 0.00 | 0.00 | 0.00 | 79 | 1016.4 |
| 20260904123228 | 79 | 186 | 0.0 | 0.0 | 0.00 | 0.00 | 0.00 | 80 | 1016.4 |
| 20260904122727 | 79 | 186 | 0.0 | 0.0 | 0.00 | 0.00 | 0.00 | 81 | 1016.3 |
| 20260904122227 | 79 | 186 | 0.0 | 1.0 | 0.00 | 0.00 | 0.00 | 81 | 1016.2 |
| 20260904121726 | 78 | 186 | 1.0 | 2.0 | 0.00 | 0.00 | 0.00 | 82 | 1016.3 |
| 20260904120725 | 78 | 93 | 0.0 | 0.0 | 0.00 | 0.00 | 0.00 | 84 | 1016.1 |
| 20260904120225 | 77 | 93 | 0.0 | 0.0 | 0.00 | 0.00 | 0.00 | 85 | 1016.2 |
| 20260904115724 | 77 | 93 | 0.0 | 0.0 | 0.00 | 0.00 | 0.00 | 85 | 1016.1 |
| 20260904115224 | 76 | 93 | 0.0 | 0.0 | 0.00 | 0.00 | 0.00 | 86 | 1016.0 |
| 20260904114223 | 76 | 93 | 0.0 | 0.0 | 0.00 | 0.00 | 0.00 | 86 | 1015.8 |
| 20260904113722 | 76 | 93 | 0.0 | 0.0 | 0.00 | 0.00 | 0.00 | 86 | 1015.8 |
| 20260904113221 | 76 | 93 | 0.0 | 0.0 | 0.00 | 0.00 | 0.00 | 86 | 1015.8 |
| 20260904112720 | 76 | 93 | 0.0 | 0.0 | 0.00 | 0.00 | 0.00 | 86 | 1015.7 |
| 20260904112220 | 76 | 93 | 0.0 | 0.0 | 0.00 | 0.00 | 0.00 | 86 | 1015.6 |
| 20260904111719 | 76 | 93 | 0.0 | 0.0 | 0.00 | 0.00 | 0.00 | 85 | 1015.6 |
| 20260904111219 | 76 | 93 | 0.0 | 0.0 | 0.00 | 0.00 | 0.00 | 85 | 1015.6 |
| 20260904110717 | 76 | 93 | 0.0 | 0.0 | 0.00 | 0.00 | 0.00 | 85 | 1015.5 |
| 20260904110217 | 76 | 93 | 0.0 | 0.0 | 0.00 | 0.00 | 0.00 | 85 | 1015.4 |
| 20260904105716 | 76 | 93 | 0.0 | 0.0 | 0.00 | 0.00 | 0.00 | 85 | 1015.2 |
| 20260904105215 | 76 | 93 | 0.0 | 0.0 | 0.00 | 0.00 | 0.00 | 85 | 1015.1 |
| 20260904104715 | 76 | 93 | 0.0 | 0.0 | 0.00 | 0.00 | 0.00 | 85 | 1015.0 |
| 20260904104214 | 76 | 93 | 0.0 | 0.0 | 0.00 | 0.00 | 0.00 | 84 | 1015.0 |
| 20260904103714 | 76 | 93 | 0.0 | 0.0 | 0.00 | 0.00 | 0.00 | 85 | 1014.9 |
| 20260904103213 | 76 | 93 | 0.0 | 0.0 | 0.00 | 0.00 | 0.00 | 85 | 1014.9 |
| 20260904102713 | 76 | 93 | 0.0 | 0.0 | 0.00 | 0.00 | 0.00 | 84 | 1014.9 |
| 20260904102212 | 76 | 93 | 0.0 | 0.0 | 0.00 | 0.00 | 0.00 | 84 | 1015.0 |
| 20260904101712 | 76 | 93 | 0.0 | 0.0 | 0.00 | 0.00 | 0.00 | 84 | 1015.0 |
| 20260904101210 | 76 | 93 | 0.0 | 0.0 | 0.00 | 0.00 | 0.00 | 84 | 1015.0 |
| 20260904100710 | 76 | 93 | 0.0 | 0.0 | 0.00 | 0.00 | 0.00 | 84 | 1015.0 |
| 20260904100209 | 76 | 93 | 0.0 | 0.0 | 0.00 | 0.00 | 0.00 | 84 | 1015.1 |
| 20260904095708 | 76 | 93 | 0.0 | 0.0 | 0.00 | 0.00 | 0.00 | 84 | 1015.2 |
| 20260904095207 | 77 | 93 | 0.0 | 0.0 | 0.00 | 0.00 | 0.00 | 83 | 1015.0 |
| 20260904094707 | 77 | 93 | 0.0 | 0.0 | 0.00 | 0.00 | 0.00 | 83 | 1015.1 |
| 20260904094206 | 77 | 93 | 0.0 | 0.0 | 0.00 | 0.00 | 0.00 | 83 | 1015.1 |
| 20260904093706 | 77 | 93 | 0.0 | 0.0 | 0.00 | 0.00 | 0.00 | 83 | 1015.1 |
| 20260904093205 | 77 | 93 | 0.0 | 0.0 | 0.00 | 0.00 | 0.00 | 83 | 1015.0 |
| 20260904092705 | 77 | 93 | 0.0 | 0.0 | 0.00 | 0.00 | 0.00 | 83 | 1015.0 |
| 20260904092204 | 77 | 93 | 0.0 | 0.0 | 0.00 | 0.00 | 0.00 | 83 | 1015.0 |
| 20260904091703 | 77 | 93 | 0.0 | 0.0 | 0.00 | 0.00 | 0.00 | 82 | 1015.0 |
| 20260904090702 | 77 | 93 | 0.0 | 0.0 | 0.00 | 0.00 | 0.00 | 82 | 1015.2 |
| 20260904090201 | 77 | 93 | 0.0 | 0.0 | 0.00 | 0.00 | 0.00 | 82 | 1015.2 |
| 20260904085700 | 77 | 93 | 0.0 | 0.0 | 0.00 | 0.00 | 0.00 | 82 | 1015.2 |
| 20260904085200 | 77 | 93 | 0.0 | 0.0 | 0.00 | 0.00 | 0.00 | 81 | 1015.2 |
| 20260904084659 | 77 | 93 | 0.0 | 0.0 | 0.00 | 0.00 | 0.00 | 81 | 1015.2 |
| 20260904084159 | 78 | 93 | 0.0 | 3.0 | 0.00 | 0.00 | 0.00 | 81 | 1015.2 |
| 20260904083658 | 78 | 93 | 0.0 | 3.0 | 0.00 | 0.00 | 0.00 | 81 | 1015.2 |
| 20260904083158 | 78 | 120 | 1.0 | 3.0 | 0.00 | 0.00 | 0.00 | 80 | 1015.1 |
| 20260904082657 | 78 | 158 | 1.0 | 0.0 | 0.00 | 0.00 | 0.00 | 80 | 1015.2 |
| 20260904082157 | 78 | 333 | 0.0 | 0.0 | 0.00 | 0.00 | 0.00 | 80 | 1015.2 |
| 20260904081656 | 78 | 333 | 0.0 | 0.0 | 0.00 | 0.00 | 0.00 | 79 | 1015.2 |
| 20260904081156 | 78 | 333 | 0.0 | 0.0 | 0.00 | 0.00 | 0.00 | 79 | 1015.1 |
| 20260904080655 | 78 | 333 | 0.0 | 0.0 | 0.00 | 0.00 | 0.00 | 79 | 1015.2 |
| 20260904080155 | 78 | 333 | 0.0 | 0.0 | 0.00 | 0.00 | 0.00 | 79 | 1015.2 |
| 20260904075654 | 78 | 333 | 0.0 | 0.0 | 0.00 | 0.00 | 0.00 | 79 | 1015.3 |
| 20260904075154 | 78 | 333 | 0.0 | 0.0 | 0.00 | 0.00 | 0.00 | 79 | 1015.2 |
| 20260904074653 | 78 | 333 | 0.0 | 0.0 | 0.00 | 0.00 | 0.00 | 79 | 1015.2 |
| 20260904074153 | 78 | 333 | 0.0 | 0.0 | 0.00 | 0.00 | 0.00 | 79 | 1015.2 |
| 20260904073652 | 78 | 333 | 0.0 | 0.0 | 0.00 | 0.00 | 0.00 | 79 | 1015.3 |
| 20260904073151 | 78 | 333 | 0.0 | 0.0 | 0.00 | 0.00 | 0.00 | 79 | 1015.4 |
| 20260904072651 | 78 | 333 | 0.0 | 0.0 | 0.00 | 0.00 | 0.00 | 79 | 1015.4 |
| 20260904072150 | 78 | 333 | 0.0 | 0.0 | 0.00 | 0.00 | 0.00 | 79 | 1015.4 |
| 20260904071650 | 78 | 333 | 0.0 | 0.0 | 0.00 | 0.00 | 0.00 | 79 | 1015.4 |
| 20260904071149 | 78 | 333 | 0.0 | 0.0 | 0.00 | 0.00 | 0.00 | 79 | 1015.5 |
| 20260904070649 | 78 | 333 | 0.0 | 0.0 | 0.00 | 0.00 | 0.00 | 79 | 1015.6 |
| 20260904070147 | 78 | 333 | 0.0 | 0.0 | 0.00 | 0.00 | 0.00 | 79 | 1015.7 |
| 20260904065647 | 78 | 333 | 0.0 | 0.0 | 0.00 | 0.00 | 0.00 | 79 | 1015.7 |
| 20260904065146 | 78 | 333 | 0.0 | 0.0 | 0.00 | 0.00 | 0.00 | 78 | 1015.7 |
| 20260904064646 | 78 | 333 | 0.0 | 0.0 | 0.00 | 0.00 | 0.00 | 78 | 1015.8 |
| 20260904064145 | 79 | 333 | 0.0 | 0.0 | 0.00 | 0.00 | 0.00 | 78 | 1015.8 |
| 20260904063645 | 79 | 333 | 0.0 | 0.0 | 0.00 | 0.00 | 0.00 | 78 | 1015.9 |
| 20260904063144 | 79 | 333 | 0.0 | 0.0 | 0.00 | 0.00 | 0.00 | 77 | 1015.9 |
| 20260904062644 | 79 | 333 | 0.0 | 0.0 | 0.00 | 0.00 | 0.00 | 77 | 1015.9 |
| 20260904062143 | 79 | 333 | 0.0 | 0.0 | 0.00 | 0.00 | 0.00 | 77 | 1015.9 |
| 20260904061643 | 79 | 333 | 0.0 | 0.0 | 0.00 | 0.00 | 0.00 | 77 | 1016.0 |
| 20260904061142 | 79 | 333 | 0.0 | 0.0 | 0.00 | 0.00 | 0.00 | 76 | 1016.0 |
| 20260904060642 | 79 | 333 | 0.0 | 0.0 | 0.00 | 0.00 | 0.00 | 76 | 1016.0 |
| 20260904060141 | 79 | 333 | 0.0 | 0.0 | 0.00 | 0.00 | 0.00 | 76 | 1015.9 |
| 20260904055641 | 80 | 333 | 0.0 | 0.0 | 0.00 | 0.00 | 0.00 | 75 | 1016.0 |